Lovelock, NV

6:57 PM PDT on September 21, 2017 (GMT -0700)
Derby

Weather History for KLOL - February, 2014

Change the Weather History Date:

Thursday, February 20, 2014

  Actual Average Record
Temperature  
Mean Temperature 32 °F -  
Max Temperature 50 °F 51 °F 68 °F (1982)
Min Temperature 15 °F 23 °F 2 °F (1990)
Degree Days  
Heating Degree Days 32    
Moisture  
Dew Point 15 °F    
Average Humidity 49    
Maximum Humidity 74    
Minimum Humidity 27    
Precipitation  
Precipitation 0.00 in - - ()
Sea Level Pressure  
Sea Level Pressure 30.28 in    
Wind  
Wind Speed 2 mph (ESE)    
Max Wind Speed 7 mph    
Max Gust Speed 17 mph    
Visibility 10 miles    
Events      
Averages and records for this station are not official NWS values.
T = Trace of Precipitation, MM = Missing Value Source: NWS Daily Summary

Daily Weather History Graph

Daily Weather History Graph

Search for Another Location

Airport or City:

Trip Planner

Search our weather history database for the weather conditions in past years. The results will help you decide how hot, cold, wet, or windy it might be!

Date:

Astronomy

Feb. 20, 2014 Rise Set
Actual Time 6:40 AM PST 5:36 PM PST
Civil Twilight 6:12 AM PST 6:03 PM PST
Nautical Twilight 5:41 AM PST 6:35 PM PST
Astronomical Twilight 5:10 AM PST 7:06 PM PST
Moon 11:35 PM PST (2/20) 9:26 AM PST (2/20)
Length of Visible Light 11h 50m
Length of Day
10h 55m
Waning Gibbous, 70% of the Moon is Illuminated
Feb 20
Waning Gibbous
Feb 22
Last Quarter
Mar 1
New
Mar 8
First Quarter
Mar 16
Full

Hourly Weather History & Observations

Time (PST) Temp. Windchill Dew Point Humidity Pressure Visibility Wind Dir Wind Speed Gust Speed Precip Events Conditions
12:53 AM 30.9 °F 27.5 °F 14.0 °F 50% 30.27 in 10.0 mi Variable 3.5 mph - N/A   Clear
1:53 AM 19.9 °F 14.9 °F 10.0 °F 65% 30.31 in 10.0 mi NNW 3.5 mph - N/A   Clear
2:53 AM 21.0 °F - 10.9 °F 65% 30.31 in 10.0 mi Calm Calm - N/A   Clear
3:53 AM 19.0 °F - 9.0 °F 65% 30.31 in 10.0 mi Calm Calm - N/A   Clear
4:53 AM 16.0 °F 8.8 °F 8.1 °F 71% 30.33 in 10.0 mi SE 4.6 mph - N/A   Clear
5:53 AM 16.0 °F 10.4 °F 9.0 °F 74% 30.35 in 10.0 mi ESE 3.5 mph - N/A   Clear
6:53 AM 15.1 °F 7.7 °F 7.0 °F 70% 30.36 in 10.0 mi WNW 4.6 mph - N/A   Clear
7:53 AM 23.0 °F - 12.9 °F 65% 30.37 in 10.0 mi Calm Calm - N/A   Clear
8:53 AM 30.0 °F - 16.0 °F 56% 30.36 in 10.0 mi Calm Calm - N/A   Clear
9:53 AM 37.0 °F - 17.1 °F 44% 30.34 in 10.0 mi Calm Calm - N/A   Clear
10:53 AM 39.9 °F - 17.1 °F 40% 30.35 in 10.0 mi Calm Calm - N/A   Clear
11:53 AM 44.1 °F 40.1 °F 16.0 °F 32% 30.31 in 10.0 mi South 6.9 mph 17.3 mph N/A   Clear
12:53 PM 46.9 °F - 17.1 °F 30% 30.25 in 10.0 mi Variable 3.5 mph - N/A   Clear
1:53 PM 48.0 °F - 17.1 °F 29% 30.24 in 10.0 mi Calm Calm - N/A   Clear
2:53 PM 48.9 °F - 17.1 °F 28% 30.21 in 10.0 mi Calm Calm - N/A   Clear
3:53 PM 48.9 °F - 17.1 °F 28% 30.22 in 10.0 mi Calm Calm - N/A   Clear
4:53 PM 50.0 °F - 17.1 °F 27% 30.20 in 10.0 mi Calm Calm - N/A   Overcast
5:53 PM 46.0 °F 43.9 °F 18.0 °F 33% 30.21 in 10.0 mi East 4.6 mph - N/A   Overcast
6:53 PM 41.0 °F 39.0 °F 19.9 °F 43% 30.24 in 10.0 mi NNE 3.5 mph - N/A   Clear
7:53 PM 37.0 °F 32.4 °F 19.9 °F 50% 30.22 in 10.0 mi West 5.8 mph - N/A   Overcast
8:53 PM 37.0 °F - 19.0 °F 48% 30.22 in 10.0 mi Calm Calm - N/A   Mostly Cloudy
9:53 PM 32.0 °F 28.7 °F 16.0 °F 52% 30.22 in 10.0 mi SSW 3.5 mph - N/A   Clear
10:53 PM 30.9 °F 27.5 °F 17.1 °F 57% 30.22 in 10.0 mi NE 3.5 mph - N/A   Clear
11:53 PM 28.0 °F 24.2 °F 17.1 °F 63% 30.21 in 10.0 mi Variable 3.5 mph - N/A   Clear